Flag for U.S.A. Weather past 2 weeks in Lafayette, Louisiana, U.S.A.

Now
91 °F

Thundershowers. Passing clouds.


Feels Like: 102 °F
Forecast: 74 / 94 °F
Wind: 10 mph from Southwest

Location: Lafayette Regional Airport

Current Time: Aug 20, 2014 at 1:44:25 PM

Latest Report: Aug 20, 2014 at 12:53 PM


Visibility: 10 mi

Pressure: 30.05 "Hg

Humidity: 60%

Dew point: 75 °F

Location of LafayetteLocation

Historic Weather in Lafayette — Graph

°F

Lafayette temperature yesterday

Maximum temperature yesterday: 92 °F (at 12:53 PM)
Minimum temperature yesterday: 74 °F (at 11:53 PM)
Average temperature yesterday: 80 °F

Past Weeks' High & Low Weather Summary

 TemperatureHumidityPressure
High94 °F (Aug 6, 2:53 PM)97% (Aug 18, 4:53 AM)30.07 "Hg (Aug 18, 4:53 AM)
Low69 °F (Aug 14, 5:53 AM)42% (Aug 14, 1:53 PM)29.90 "Hg (Aug 12, 6:53 PM)
Average82 °F78%30.00 "Hg
* Reported Aug 5 12:00 Noon — Aug 20 12:53 PM, Lafayette, Weather by CustomWeather, © 2014

Note: Actual official high and low records may vary slightly from our data, if they occured in-between our weather recording intervals... More about our weather records

Advertising

Lafayette weather history for previous 24 hours

 ConditionsComfort  
Time TempWeatherWind HumidityBarometerVisibility
12:53 PM
Aug 20
91 °FThundershowers. Passing clouds.10 mph60%30.05 "Hg10 mi
11:53 AM90 °FPassing clouds.3 mph66%30.06 "Hg10 mi
10:53 AM88 °FScattered clouds.3 mph70%30.06 "Hg10 mi
9:53 AM85 °FSunny.3 mph80%30.05 "Hg10 mi
8:53 AM80 °FSunny.No wind90%30.04 "Hg10 mi
7:53 AM76 °FScattered clouds.3 mph94%30.03 "Hg10 mi
6:53 AM74 °FClear.No wind94%30.01 "Hg10 mi
5:53 AM74 °FClear.3 mph97%30.00 "Hg10 mi
4:53 AM75 °FClear.No wind94%29.97 "Hg10 mi
3:53 AM76 °FClear.5 mph91%29.96 "Hg10 mi
2:53 AM75 °FClear.3 mph94%29.96 "Hg10 mi
1:53 AM75 °FClear.No wind94%29.97 "Hg10 mi
12:53 AM74 °FClear.3 mph97%29.98 "Hg10 mi
11:53 PM
Aug 19
74 °FPassing clouds.No wind97%29.98 "Hg10 mi
10:53 PM75 °FClear.5 mph94%29.98 "Hg10 mi
9:53 PM76 °FClear.No wind94%29.97 "Hg10 mi
8:53 PM76 °FClear.3 mph94%29.96 "Hg10 mi
7:53 PM77 °FSunny.6 mph90%29.95 "Hg10 mi
6:53 PM77 °FSunny.3 mph88%29.96 "Hg10 mi
5:53 PM77 °FPassing clouds.5 mph90%29.95 "Hg10 mi
4:53 PM77 °FLight rain. Overcast.9 mph90%29.97 "Hg10 mi
3:53 PM76 °FThunderstorms. Passing clouds.3 mph91%29.98 "Hg10 mi
3:01 PM76 °FStrong thunderstorms. Fog.12 mph88%29.99 "Hg3 mi
1:53 PM91 °FPartly sunny.3 mph54%29.96 "Hg10 mi
Weather by CustomWeather, © 2014

See weather overviewHow to use our weather pages